Time,TemperatureF,DewpointF,PressureIn,WindDirection,WindDirectionDegrees,WindSpeedMPH,WindSpeedGustMPH,Humidity,HourlyPrecipIn,Conditions,Clouds,dailyrainin,SoftwareType,DateUTC
2013-03-09 00:00:00,33.2,24.5,30.30,South,169,0.0,12.0,70,0.00,,,0.00,VWS V14.01,2013-03-09 05:00:00,
2013-03-09 00:01:00,33.1,24.0,30.30,South,169,0.0,12.0,69,0.00,,,0.00,VWS V14.01,2013-03-09 05:01:00,
2013-03-09 00:03:00,32.9,23.9,30.30,South,169,0.0,12.0,69,0.00,,,0.00,VWS V14.01,2013-03-09 05:03:00,
2013-03-09 00:08:00,32.5,23.8,30.30,South,169,0.0,12.0,70,0.00,,,0.00,VWS V14.01,2013-03-09 05:08:00,
2013-03-09 00:13:00,32.2,23.9,30.30,South,169,0.0,12.0,71,0.00,,,0.00,VWS V14.01,2013-03-09 05:13:00,
2013-03-09 00:18:00,31.8,23.8,30.30,South,169,0.0,12.0,72,0.00,,,0.00,VWS V14.01,2013-03-09 05:18:00,
2013-03-09 00:23:00,31.2,23.9,30.30,South,169,0.0,12.0,74,0.00,,,0.00,VWS V14.01,2013-03-09 05:23:00,
2013-03-09 00:28:00,30.7,24.0,30.30,South,169,0.0,12.0,76,0.00,,,0.00,VWS V14.01,2013-03-09 05:28:00,
2013-03-09 00:33:00,30.3,24.0,30.30,South,169,0.0,12.0,77,0.00,,,0.00,VWS V14.01,2013-03-09 05:33:00,
2013-03-09 00:39:00,30.0,23.7,30.30,South,169,0.0,12.0,77,0.00,,,0.00,VWS V14.01,2013-03-09 05:39:00,
2013-03-09 00:44:00,29.7,23.7,30.30,South,169,0.0,12.0,78,0.00,,,0.00,VWS V14.01,2013-03-09 05:44:00,
2013-03-09 00:49:00,29.4,23.7,30.30,South,169,0.0,12.0,79,0.00,,,0.00,VWS V14.01,2013-03-09 05:49:00,
2013-03-09 00:54:00,29.3,23.9,30.30,South,169,0.0,12.0,80,0.00,,,0.00,VWS V14.01,2013-03-09 05:54:00,
2013-03-09 00:59:00,29.3,24.2,30.30,South,169,0.0,12.0,81,0.00,,,0.00,VWS V14.01,2013-03-09 05:59:00,
2013-03-09 01:04:00,29.3,24.2,30.30,South,169,0.0,12.0,81,0.00,,,0.00,VWS V14.01,2013-03-09 06:04:00,
2013-03-09 01:09:00,29.3,24.2,30.30,South,169,0.0,12.0,81,0.00,,,0.00,VWS V14.01,2013-03-09 06:09:00,
2013-03-09 01:14:00,29.1,24.0,30.30,South,169,0.0,12.0,81,0.00,,,0.00,VWS V14.01,2013-03-09 06:14:00,
2013-03-09 01:19:00,29.0,24.2,30.28,South,169,0.0,12.0,82,0.00,,,0.00,VWS V14.01,2013-03-09 06:19:00,
2013-03-09 01:24:00,29.0,24.2,30.28,South,169,0.0,12.0,82,0.00,,,0.00,VWS V14.01,2013-03-09 06:24:00,
2013-03-09 01:29:00,28.8,24.0,30.28,South,169,0.0,12.0,82,0.00,,,0.00,VWS V14.01,2013-03-09 06:29:00,
2013-03-09 01:34:00,28.8,24.0,30.29,South,169,0.0,12.0,82,0.00,,,0.00,VWS V14.01,2013-03-09 06:34:00,
2013-03-09 01:39:00,28.8,24.3,30.29,South,169,0.0,12.0,83,0.00,,,0.00,VWS V14.01,2013-03-09 06:39:00,
2013-03-09 01:44:00,28.7,24.2,30.29,South,169,0.0,12.0,83,0.00,,,0.00,VWS V14.01,2013-03-09 06:44:00,
2013-03-09 01:49:00,28.5,23.7,30.29,South,169,0.0,12.0,82,0.00,,,0.00,VWS V14.01,2013-03-09 06:49:00,
2013-03-09 01:54:00,28.4,23.9,30.29,South,169,0.0,12.0,83,0.00,,,0.00,VWS V14.01,2013-03-09 06:54:00,
2013-03-09 01:59:00,28.4,23.9,30.29,South,169,0.0,12.0,83,0.00,,,0.00,VWS V14.01,2013-03-09 06:59:00,
2013-03-09 02:04:00,28.2,23.7,30.28,South,169,0.0,12.0,83,0.00,,,0.00,VWS V14.01,2013-03-09 07:04:00,
2013-03-09 02:10:00,28.2,23.7,30.28,South,169,0.0,12.0,83,0.00,,,0.00,VWS V14.01,2013-03-09 07:10:00,
2013-03-09 02:15:00,28.1,23.9,30.28,South,169,0.0,12.0,84,0.00,,,0.00,VWS V14.01,2013-03-09 07:15:00,
2013-03-09 02:20:00,28.1,23.9,30.27,South,169,0.0,12.0,84,0.00,,,0.00,VWS V14.01,2013-03-09 07:20:00,
2013-03-09 02:25:00,27.9,23.7,30.27,South,169,0.0,12.0,84,0.00,,,0.00,VWS V14.01,2013-03-09 07:25:00,
2013-03-09 02:30:00,27.9,24.0,30.27,South,169,0.0,12.0,85,0.00,,,0.00,VWS V14.01,2013-03-09 07:30:00,
2013-03-09 02:35:00,27.9,24.0,30.26,South,169,0.0,12.0,85,0.00,,,0.00,VWS V14.01,2013-03-09 07:35:00,
2013-03-09 02:40:00,27.8,24.2,30.26,South,169,0.0,12.0,86,0.00,,,0.00,VWS V14.01,2013-03-09 07:40:00,
2013-03-09 02:45:00,27.8,24.2,30.26,South,169,0.0,12.0,86,0.00,,,0.00,VWS V14.01,2013-03-09 07:45:00,
2013-03-09 02:50:00,27.9,24.3,30.26,South,169,0.0,12.0,86,0.00,,,0.00,VWS V14.01,2013-03-09 07:50:00,
2013-03-09 02:55:00,27.9,24.3,30.26,SSE,167,0.0,12.0,86,0.00,,,0.00,VWS V14.01,2013-03-09 07:55:00,
2013-03-09 03:00:00,27.9,24.3,30.26,WSW,242,0.0,12.0,86,0.00,,,0.00,VWS V14.01,2013-03-09 08:00:00,
2013-03-09 03:05:00,28.1,24.7,30.26,WSW,242,0.0,12.0,87,0.00,,,0.00,VWS V14.01,2013-03-09 08:05:00,
2013-03-09 03:10:00,28.1,24.7,30.26,WSW,242,1.0,12.0,87,0.00,,,0.00,VWS V14.01,2013-03-09 08:10:00,
2013-03-09 03:15:00,28.2,25.1,30.26,WSW,242,0.0,12.0,88,0.00,,,0.00,VWS V14.01,2013-03-09 08:15:00,
2013-03-09 03:20:00,28.1,24.7,30.24,WSW,242,0.0,12.0,87,0.00,,,0.00,VWS V14.01,2013-03-09 08:20:00,
2013-03-09 03:25:00,28.1,24.7,30.24,WSW,242,0.0,12.0,87,0.00,,,0.00,VWS V14.01,2013-03-09 08:25:00,
2013-03-09 03:30:00,28.2,24.8,30.24,WSW,242,0.0,12.0,87,0.00,,,0.00,VWS V14.01,2013-03-09 08:30:00,
2013-03-09 03:35:00,28.4,25.0,30.24,NE,36,0.0,12.0,87,0.00,,,0.00,VWS V14.01,2013-03-09 08:35:00,
2013-03-09 03:41:00,28.8,25.1,30.24,NE,36,0.0,12.0,86,0.00,,,0.00,VWS V14.01,2013-03-09 08:41:00,
2013-03-09 03:46:00,29.4,24.9,30.24,NW,311,0.0,12.0,83,0.00,,,0.00,VWS V14.01,2013-03-09 08:46:00,
2013-03-09 03:51:00,29.7,24.9,30.22,NW,311,0.0,12.0,82,0.00,,,0.00,VWS V14.01,2013-03-09 08:51:00,
2013-03-09 03:56:00,30.0,24.6,30.22,NW,311,0.0,12.0,80,0.00,,,0.00,VWS V14.01,2013-03-09 08:56:00,
2013-03-09 04:01:00,30.1,24.4,30.22,NW,311,0.0,12.0,79,0.00,,,0.00,VWS V14.01,2013-03-09 09:01:00,
2013-03-09 04:06:00,30.1,24.4,30.22,NW,311,0.0,12.0,79,0.00,,,0.00,VWS V14.01,2013-03-09 09:06:00,
2013-03-09 04:11:00,30.0,24.6,30.22,NW,311,0.0,12.0,80,0.00,,,0.00,VWS V14.01,2013-03-09 09:11:00,
2013-03-09 04:16:00,30.3,24.6,30.22,North,5,0.0,12.0,79,0.00,,,0.00,VWS V14.01,2013-03-09 09:16:00,
2013-03-09 04:21:00,30.4,24.7,30.22,North,5,0.0,12.0,79,0.00,,,0.00,VWS V14.01,2013-03-09 09:21:00,
2013-03-09 04:26:00,30.4,25.0,30.22,North,5,0.0,12.0,80,0.00,,,0.00,VWS V14.01,2013-03-09 09:26:00,
2013-03-09 04:31:00,30.4,25.0,30.22,North,5,0.0,12.0,80,0.00,,,0.00,VWS V14.01,2013-03-09 09:31:00,
2013-03-09 04:36:00,30.3,24.9,30.23,North,5,0.0,12.0,80,0.00,,,0.00,VWS V14.01,2013-03-09 09:36:00,
2013-03-09 04:41:00,30.3,24.9,30.23,North,5,0.0,12.0,80,0.00,,,0.00,VWS V14.01,2013-03-09 09:41:00,
2013-03-09 04:46:00,30.6,24.9,30.23,North,5,0.0,12.0,79,0.00,,,0.00,VWS V14.01,2013-03-09 09:46:00,
2013-03-09 04:51:00,30.7,24.4,30.23,NNW,345,0.0,12.0,77,0.00,,,0.00,VWS V14.01,2013-03-09 09:51:00,
2013-03-09 04:56:00,31.0,24.6,30.23,SW,227,0.0,12.0,77,0.00,,,0.00,VWS V14.01,2013-03-09 09:56:00,
2013-03-09 05:02:00,31.0,25.0,30.23,SW,227,0.0,12.0,78,0.00,,,0.00,VWS V14.01,2013-03-09 10:02:00,
2013-03-09 05:07:00,31.0,25.3,30.23,SW,227,0.0,12.0,79,0.00,,,0.00,VWS V14.01,2013-03-09 10:07:00,
2013-03-09 05:12:00,30.7,24.7,30.23,SW,227,0.0,12.0,78,0.00,,,0.00,VWS V14.01,2013-03-09 10:12:00,
2013-03-09 05:17:00,30.6,24.6,30.23,SW,227,0.0,12.0,78,0.00,,,0.00,VWS V14.01,2013-03-09 10:17:00,
2013-03-09 05:22:00,30.4,24.4,30.24,SW,227,0.0,12.0,78,0.00,,,0.00,VWS V14.01,2013-03-09 10:22:00,
2013-03-09 05:27:00,30.1,24.1,30.24,SW,227,0.0,12.0,78,0.00,,,0.00,VWS V14.01,2013-03-09 10:27:00,
2013-03-09 05:32:00,30.1,24.4,30.24,SW,227,0.0,12.0,79,0.00,,,0.00,VWS V14.01,2013-03-09 10:32:00,
2013-03-09 05:37:00,30.0,24.3,30.24,SW,227,0.0,12.0,79,0.00,,,0.00,VWS V14.01,2013-03-09 10:37:00,
2013-03-09 05:42:00,29.7,24.0,30.24,SW,227,0.0,12.0,79,0.00,,,0.00,VWS V14.01,2013-03-09 10:42:00,
2013-03-09 05:47:00,29.4,24.3,30.24,SW,227,0.0,12.0,81,0.00,,,0.00,VWS V14.01,2013-03-09 10:47:00,
2013-03-09 05:52:00,29.3,24.2,30.24,SW,227,0.0,12.0,81,0.00,,,0.00,VWS V14.01,2013-03-09 10:52:00,
2013-03-09 05:57:00,29.1,24.0,30.24,SW,227,0.0,12.0,81,0.00,,,0.00,VWS V14.01,2013-03-09 10:57:00,
2013-03-09 06:02:00,29.0,23.9,30.24,SW,227,0.0,12.0,81,0.00,,,0.00,VWS V14.01,2013-03-09 11:02:00,
2013-03-09 06:07:00,28.8,24.0,30.24,SW,227,0.0,12.0,82,0.00,,,0.00,VWS V14.01,2013-03-09 11:07:00,
2013-03-09 06:12:00,28.7,24.2,30.24,SW,227,0.0,12.0,83,0.00,,,0.00,VWS V14.01,2013-03-09 11:12:00,
2013-03-09 06:18:00,28.4,23.9,30.24,SW,227,0.0,12.0,83,0.00,,,0.00,VWS V14.01,2013-03-09 11:18:00,
2013-03-09 06:23:00,28.2,24.0,30.25,SW,227,0.0,12.0,84,0.00,,,0.00,VWS V14.01,2013-03-09 11:23:00,
2013-03-09 06:28:00,28.2,24.0,30.25,SW,227,0.0,12.0,84,0.00,,,0.00,VWS V14.01,2013-03-09 11:28:00,
2013-03-09 06:33:00,28.2,24.0,30.25,SW,227,0.0,12.0,84,0.00,,,0.00,VWS V14.01,2013-03-09 11:33:00,
2013-03-09 06:38:00,28.2,24.0,30.26,SW,227,0.0,12.0,84,0.00,,,0.00,VWS V14.01,2013-03-09 11:38:00,
2013-03-09 06:43:00,28.2,24.3,30.26,SW,227,0.0,12.0,85,0.00,,,0.00,VWS V14.01,2013-03-09 11:43:00,
2013-03-09 06:48:00,28.1,24.2,30.26,SW,227,0.0,12.0,85,0.00,,,0.00,VWS V14.01,2013-03-09 11:48:00,
2013-03-09 06:53:00,27.9,24.0,30.26,SW,227,0.0,12.0,85,0.00,,,0.00,VWS V14.01,2013-03-09 11:53:00,
2013-03-09 06:58:00,27.8,23.9,30.26,SW,227,0.0,12.0,85,0.00,,,0.00,VWS V14.01,2013-03-09 11:58:00,
2013-03-09 07:03:00,27.8,23.9,30.26,SW,227,0.0,12.0,85,0.00,,,0.00,VWS V14.01,2013-03-09 12:03:00,
2013-03-09 07:08:00,27.6,23.7,30.26,SW,227,0.0,12.0,85,0.00,,,0.00,VWS V14.01,2013-03-09 12:08:00,
2013-03-09 07:13:00,27.6,23.7,30.26,NNE,30,0.0,12.0,85,0.00,,,0.00,VWS V14.01,2013-03-09 12:13:00,
2013-03-09 07:18:00,27.6,24.0,30.26,NNE,30,0.0,12.0,86,0.00,,,0.00,VWS V14.01,2013-03-09 12:18:00,
2013-03-09 07:23:00,27.5,23.9,30.28,South,182,0.0,12.0,86,0.00,,,0.00,VWS V14.01,2013-03-09 12:23:00,
2013-03-09 07:28:00,27.5,23.9,30.28,South,182,0.0,12.0,86,0.00,,,0.00,VWS V14.01,2013-03-09 12:28:00,
2013-03-09 07:33:00,27.6,24.2,30.28,South,182,0.0,12.0,87,0.00,,,0.00,VWS V14.01,2013-03-09 12:33:00,
2013-03-09 07:38:00,27.8,24.2,30.28,South,182,0.0,12.0,86,0.00,,,0.00,VWS V14.01,2013-03-09 12:38:00,
2013-03-09 07:43:00,27.8,24.4,30.28,NNE,22,0.0,12.0,87,0.00,,,0.00,VWS V14.01,2013-03-09 12:43:00,
2013-03-09 07:48:00,28.1,24.7,30.29,NNE,18,0.0,12.0,87,0.00,,,0.00,VWS V14.01,2013-03-09 12:48:00,
2013-03-09 07:53:00,28.1,24.5,30.29,NNE,18,0.0,12.0,86,0.00,,,0.00,VWS V14.01,2013-03-09 12:53:00,
2013-03-09 07:58:00,28.2,24.8,30.29,NNE,18,0.0,12.0,87,0.00,,,0.00,VWS V14.01,2013-03-09 12:58:00,
2013-03-09 08:04:00,28.5,25.1,30.29,NNE,18,0.0,12.0,87,0.00,,,0.00,VWS V14.01,2013-03-09 13:04:00,
2013-03-09 08:09:00,28.8,25.7,30.29,NNE,18,0.0,12.0,88,0.00,,,0.00,VWS V14.01,2013-03-09 13:09:00,
2013-03-09 08:14:00,29.4,26.3,30.29,NNE,18,0.0,12.0,88,0.00,,,0.00,VWS V14.01,2013-03-09 13:14:00,
2013-03-09 08:19:00,30.0,26.9,30.29,NNE,18,0.0,12.0,88,0.00,,,0.00,VWS V14.01,2013-03-09 13:19:00,
2013-03-09 08:24:00,30.4,27.0,30.29,NNE,18,0.0,12.0,87,0.00,,,0.00,VWS V14.01,2013-03-09 13:24:00,
2013-03-09 08:29:00,30.9,26.6,30.29,NNE,18,0.0,12.0,84,0.00,,,0.00,VWS V14.01,2013-03-09 13:29:00,
2013-03-09 08:34:00,31.5,26.0,30.30,NNE,18,0.0,12.0,80,0.00,,,0.00,VWS V14.01,2013-03-09 13:34:00,
2013-03-09 08:39:00,31.9,25.8,30.30,NNE,18,0.0,12.0,78,0.00,,,0.00,VWS V14.01,2013-03-09 13:39:00,
2013-03-09 08:44:00,32.5,25.8,30.30,NNE,18,0.0,12.0,76,0.00,,,0.00,VWS V14.01,2013-03-09 13:44:00,
2013-03-09 08:49:00,32.8,25.8,30.30,NNE,18,0.0,12.0,75,0.00,,,0.00,VWS V14.01,2013-03-09 13:49:00,
2013-03-09 08:54:00,33.1,26.0,30.30,NNE,18,0.0,12.0,75,0.00,,,0.00,VWS V14.01,2013-03-09 13:54:00,
2013-03-09 08:59:00,33.4,26.0,30.30,NNE,18,0.0,12.0,74,0.00,,,0.00,VWS V14.01,2013-03-09 13:59:00,
2013-03-09 09:04:00,33.8,25.7,30.28,NE,34,0.0,12.0,72,0.00,,,0.00,VWS V14.01,2013-03-09 14:04:00,
2013-03-09 09:09:00,34.4,26.0,30.28,WSW,257,0.0,12.0,71,0.00,,,0.00,VWS V14.01,2013-03-09 14:09:00,
2013-03-09 09:14:00,35.0,26.2,30.28,ESE,109,0.0,12.0,70,0.00,,,0.00,VWS V14.01,2013-03-09 14:14:00,
2013-03-09 09:19:00,35.6,26.1,30.28,WSW,246,0.0,12.0,68,0.00,,,0.00,VWS V14.01,2013-03-09 14:19:00,
2013-03-09 09:25:00,36.2,26.0,30.28,WSW,247,2.0,12.0,66,0.00,,,0.00,VWS V14.01,2013-03-09 14:25:00,
2013-03-09 09:30:00,37.2,25.4,30.28,SSW,202,1.0,12.0,62,0.00,,,0.00,VWS V14.01,2013-03-09 14:30:00,
2013-03-09 09:35:00,38.0,25.0,30.27,SW,219,0.0,12.0,59,0.00,,,0.00,VWS V14.01,2013-03-09 14:35:00,
2013-03-09 09:40:00,38.6,25.9,30.27,West,269,1.0,12.0,60,0.00,,,0.00,VWS V14.01,2013-03-09 14:40:00,
2013-03-09 09:45:00,39.3,25.4,30.27,WNW,293,0.0,12.0,57,0.00,,,0.00,VWS V14.01,2013-03-09 14:45:00,
2013-03-09 09:50:00,39.9,25.9,30.26,NNE,22,3.0,12.0,57,0.00,,,0.00,VWS V14.01,2013-03-09 14:50:00,
2013-03-09 09:55:00,40.6,25.7,30.26,West,277,0.0,12.0,55,0.00,,,0.00,VWS V14.01,2013-03-09 14:55:00,
2013-03-09 10:00:00,41.1,25.7,30.26,West,265,0.0,12.0,54,0.00,,,0.00,VWS V14.01,2013-03-09 15:00:00,
2013-03-09 10:05:00,41.5,25.7,30.26,SW,215,0.0,12.0,53,0.00,,,0.00,VWS V14.01,2013-03-09 15:05:00,
2013-03-09 10:10:00,42.2,25.9,30.26,West,273,2.0,12.0,52,0.00,,,0.00,VWS V14.01,2013-03-09 15:10:00,
2013-03-09 10:15:00,42.8,25.9,30.26,WSW,244,2.0,12.0,51,0.00,,,0.00,VWS V14.01,2013-03-09 15:15:00,
2013-03-09 10:20:00,43.1,25.7,30.26,WSW,247,0.0,12.0,50,0.00,,,0.00,VWS V14.01,2013-03-09 15:20:00,
2013-03-09 10:25:00,43.6,26.2,30.26,WSW,248,0.0,12.0,50,0.00,,,0.00,VWS V14.01,2013-03-09 15:25:00,
2013-03-09 10:30:00,44.3,26.4,30.26,WSW,248,0.0,12.0,49,0.00,,,0.00,VWS V14.01,2013-03-09 15:30:00,
2013-03-09 10:36:00,44.9,26.4,30.25,WSW,257,3.0,12.0,48,0.00,,,0.00,VWS V14.01,2013-03-09 15:36:00,
2013-03-09 10:41:00,45.2,26.7,30.25,WSW,256,0.0,12.0,48,0.00,,,0.00,VWS V14.01,2013-03-09 15:41:00,
2013-03-09 10:46:00,45.8,26.7,30.25,WSW,256,1.0,12.0,47,0.00,,,0.00,VWS V14.01,2013-03-09 15:46:00,
2013-03-09 10:51:00,46.5,26.9,30.25,West,277,2.0,12.0,46,0.00,,,0.00,VWS V14.01,2013-03-09 15:51:00,
2013-03-09 10:56:00,47.0,26.8,30.25,West,267,0.0,12.0,45,0.00,,,0.00,VWS V14.01,2013-03-09 15:56:00,
2013-03-09 11:01:00,47.6,27.3,30.25,West,270,0.0,12.0,45,0.00,,,0.00,VWS V14.01,2013-03-09 16:01:00,
2013-03-09 11:06:00,48.0,27.1,30.24,West,264,0.0,12.0,44,0.00,,,0.00,VWS V14.01,2013-03-09 16:06:00,
2013-03-09 11:11:00,48.5,27.6,30.24,WNW,288,0.0,12.0,44,0.00,,,0.00,VWS V14.01,2013-03-09 16:11:00,
2013-03-09 11:16:00,49.2,27.7,30.24,WNW,282,1.0,12.0,43,0.00,,,0.00,VWS V14.01,2013-03-09 16:16:00,
2013-03-09 11:21:00,49.6,26.9,30.24,NE,49,0.0,12.0,41,0.00,,,0.00,VWS V14.01,2013-03-09 16:21:00,
2013-03-09 11:26:00,50.2,26.2,30.24,West,277,2.0,12.0,39,0.00,,,0.00,VWS V14.01,2013-03-09 16:26:00,
2013-03-09 11:31:00,50.5,26.5,30.24,NNW,333,3.0,12.0,39,0.00,,,0.00,VWS V14.01,2013-03-09 16:31:00,
2013-03-09 11:36:00,51.4,27.3,30.24,West,263,1.0,12.0,39,0.00,,,0.00,VWS V14.01,2013-03-09 16:36:00,
2013-03-09 11:41:00,51.9,24.4,30.24,West,260,0.0,12.0,34,0.00,,,0.00,VWS V14.01,2013-03-09 16:41:00,
2013-03-09 11:46:00,52.5,24.2,30.24,SW,215,0.0,12.0,33,0.00,,,0.00,VWS V14.01,2013-03-09 16:46:00,
2013-03-09 11:51:00,52.8,23.0,30.23,South,191,2.0,12.0,31,0.00,,,0.00,VWS V14.01,2013-03-09 16:51:00,
2013-03-09 11:57:00,53.3,23.5,30.23,WSW,249,2.0,12.0,31,0.00,,,0.00,VWS V14.01,2013-03-09 16:57:00,
2013-03-09 12:02:00,54.2,25.0,30.23,West,269,6.0,12.0,32,0.00,,,0.00,VWS V14.01,2013-03-09 17:02:00,
2013-03-09 12:07:00,54.5,24.5,30.23,West,273,3.0,12.0,31,0.00,,,0.00,VWS V14.01,2013-03-09 17:07:00,
2013-03-09 12:12:00,55.0,24.9,30.23,West,261,0.0,12.0,31,0.00,,,0.00,VWS V14.01,2013-03-09 17:12:00,
2013-03-09 12:17:00,55.6,26.2,30.23,SSE,158,0.0,12.0,32,0.00,,,0.00,VWS V14.01,2013-03-09 17:17:00,
2013-03-09 12:22:00,55.9,25.7,30.23,West,261,0.0,12.0,31,0.00,,,0.00,VWS V14.01,2013-03-09 17:22:00,
2013-03-09 12:27:00,56.9,26.6,30.23,West,278,0.0,12.0,31,0.00,,,0.00,VWS V14.01,2013-03-09 17:27:00,
2013-03-09 12:32:00,58.1,26.9,30.23,NW,306,3.0,12.0,30,0.00,,,0.00,VWS V14.01,2013-03-09 17:32:00,
2013-03-09 12:37:00,58.3,25.4,30.22,WSW,244,1.0,12.0,28,0.00,,,0.00,VWS V14.01,2013-03-09 17:37:00,
2013-03-09 12:42:00,58.0,24.2,30.22,West,273,1.0,12.0,27,0.00,,,0.00,VWS V14.01,2013-03-09 17:42:00,
2013-03-09 12:47:00,58.3,23.6,30.22,West,269,4.0,12.0,26,0.00,,,0.00,VWS V14.01,2013-03-09 17:47:00,
2013-03-09 12:52:00,58.3,22.6,30.21,WSW,257,0.0,12.0,25,0.00,,,0.00,VWS V14.01,2013-03-09 17:52:00,
2013-03-09 12:57:00,58.7,21.0,30.21,SE,134,0.0,12.0,23,0.00,,,0.00,VWS V14.01,2013-03-09 17:57:00,
2013-03-09 13:02:00,59.9,18.8,30.21,West,277,1.0,12.0,20,0.00,,,0.00,VWS V14.01,2013-03-09 18:02:00,
2013-03-09 13:08:00,59.8,18.7,30.20,SE,139,2.0,12.0,20,0.00,,,0.00,VWS V14.01,2013-03-09 18:08:00,
2013-03-09 13:13:00,59.3,19.4,30.20,ESE,105,0.0,12.0,21,0.00,,,0.00,VWS V14.01,2013-03-09 18:13:00,
2013-03-09 13:18:00,60.5,22.5,30.20,ESE,120,0.0,12.0,23,0.00,,,0.00,VWS V14.01,2013-03-09 18:18:00,
2013-03-09 13:23:00,60.9,20.7,30.19,West,280,3.0,12.0,21,0.00,,,0.00,VWS V14.01,2013-03-09 18:23:00,
2013-03-09 13:28:00,60.9,22.9,30.19,East,94,0.0,12.0,23,0.00,,,0.00,VWS V14.01,2013-03-09 18:28:00,
2013-03-09 13:33:00,61.5,22.3,30.19,NW,325,1.0,12.0,22,0.00,,,0.00,VWS V14.01,2013-03-09 18:33:00,
2013-03-09 13:38:00,62.6,23.2,30.18,NNW,333,1.0,12.0,22,0.00,,,0.00,VWS V14.01,2013-03-09 18:38:00,
2013-03-09 13:43:00,63.5,24.0,30.18,NW,304,0.0,12.0,22,0.00,,,0.00,VWS V14.01,2013-03-09 18:43:00,
2013-03-09 13:48:00,64.3,26.8,30.18,NW,313,0.0,12.0,24,0.00,,,0.00,VWS V14.01,2013-03-09 18:48:00,
2013-03-09 13:53:00,64.8,22.8,30.17,WSW,256,0.0,12.0,20,0.00,,,0.00,VWS V14.01,2013-03-09 18:53:00,
2013-03-09 13:58:00,64.2,24.6,30.17,West,274,2.0,12.0,22,0.00,,,0.00,VWS V14.01,2013-03-09 18:58:00,
2013-03-09 14:03:00,64.0,25.5,30.17,SW,229,4.0,12.0,23,0.00,,,0.00,VWS V14.01,2013-03-09 19:03:00,
2013-03-09 14:08:00,63.9,26.4,30.17,NW,315,3.0,12.0,24,0.00,,,0.00,VWS V14.01,2013-03-09 19:08:00,
2013-03-09 14:13:00,64.3,25.7,30.17,WNW,282,2.0,12.0,23,0.00,,,0.00,VWS V14.01,2013-03-09 19:13:00,
2013-03-09 14:18:00,65.2,25.4,30.16,NNW,327,3.0,12.0,22,0.00,,,0.00,VWS V14.01,2013-03-09 19:18:00,
2013-03-09 14:23:00,65.0,25.3,30.16,North,355,1.0,12.0,22,0.00,,,0.00,VWS V14.01,2013-03-09 19:23:00,
2013-03-09 14:29:00,63.9,24.3,30.16,NNW,338,1.0,12.0,22,0.00,,,0.00,VWS V14.01,2013-03-09 19:29:00,
2013-03-09 14:34:00,62.6,24.3,30.16,NE,40,4.0,12.0,23,0.00,,,0.00,VWS V14.01,2013-03-09 19:34:00,
2013-03-09 14:39:00,62.3,25.1,30.16,North,5,1.0,12.0,24,0.00,,,0.00,VWS V14.01,2013-03-09 19:39:00,
2013-03-09 14:44:00,63.4,25.0,30.16,WSW,252,1.0,12.0,23,0.00,,,0.00,VWS V14.01,2013-03-09 19:44:00,
2013-03-09 14:49:00,64.7,25.0,30.14,NNE,29,1.0,12.0,22,0.00,,,0.00,VWS V14.01,2013-03-09 19:49:00,
2013-03-09 14:54:00,64.5,24.8,30.14,SSW,200,0.0,12.0,22,0.00,,,0.00,VWS V14.01,2013-03-09 19:54:00,
2013-03-09 14:59:00,63.7,24.2,30.14,SE,146,0.0,12.0,22,0.00,,,0.00,VWS V14.01,2013-03-09 19:59:00,
2013-03-09 15:04:00,64.2,25.7,30.14,NW,314,0.0,12.0,23,0.00,,,0.00,VWS V14.01,2013-03-09 20:04:00,
2013-03-09 15:09:00,65.2,25.4,30.14,NW,316,1.0,12.0,22,0.00,,,0.00,VWS V14.01,2013-03-09 20:09:00,
2013-03-09 15:15:00,65.8,25.9,30.14,WNW,289,3.0,12.0,22,0.00,,,0.00,VWS V14.01,2013-03-09 20:15:00,
2013-03-09 15:20:00,66.3,26.4,30.13,WSW,256,1.0,12.0,22,0.00,,,0.00,VWS V14.01,2013-03-09 20:20:00,
2013-03-09 15:25:00,66.1,27.2,30.13,NNW,340,1.0,12.0,23,0.00,,,0.00,VWS V14.01,2013-03-09 20:25:00,
2013-03-09 15:30:00,66.6,27.7,30.13,NW,305,2.0,12.0,23,0.00,,,0.00,VWS V14.01,2013-03-09 20:30:00,
2013-03-09 15:35:00,66.6,26.6,30.13,NNW,345,3.0,12.0,22,0.00,,,0.00,VWS V14.01,2013-03-09 20:35:00,
2013-03-09 15:40:00,66.0,28.2,30.13,NW,309,3.0,12.0,24,0.00,,,0.00,VWS V14.01,2013-03-09 20:40:00,
2013-03-09 15:45:00,65.8,28.0,30.13,WNW,292,0.0,12.0,24,0.00,,,0.00,VWS V14.01,2013-03-09 20:45:00,
2013-03-09 15:50:00,65.8,28.0,30.13,NNW,344,4.0,12.0,24,0.00,,,0.00,VWS V14.01,2013-03-09 20:50:00,
2013-03-09 15:55:00,65.2,26.5,30.13,WNW,290,0.0,12.0,23,0.00,,,0.00,VWS V14.01,2013-03-09 20:55:00,
2013-03-09 16:00:00,65.5,26.8,30.13,WNW,290,0.0,12.0,23,0.00,,,0.00,VWS V14.01,2013-03-09 21:00:00,
2013-03-09 16:05:00,65.3,25.5,30.13,WNW,297,1.0,12.0,22,0.00,,,0.00,VWS V14.01,2013-03-09 21:05:00,
2013-03-09 16:10:00,65.0,25.3,30.13,NNW,342,3.0,12.0,22,0.00,,,0.00,VWS V14.01,2013-03-09 21:10:00,
2013-03-09 16:15:00,64.5,25.9,30.13,NW,317,2.0,12.0,23,0.00,,,0.00,VWS V14.01,2013-03-09 21:15:00,
2013-03-09 16:20:00,64.3,24.7,30.14,NNW,339,1.0,12.0,22,0.00,,,0.00,VWS V14.01,2013-03-09 21:20:00,
2013-03-09 16:26:00,64.8,25.1,30.14,SW,231,3.0,12.0,22,0.00,,,0.00,VWS V14.01,2013-03-09 21:26:00,
2013-03-09 16:31:00,65.2,24.3,30.14,West,275,0.0,12.0,21,0.00,,,0.00,VWS V14.01,2013-03-09 21:31:00,
2013-03-09 16:36:00,65.0,25.3,30.13,WNW,289,1.0,12.0,22,0.00,,,0.00,VWS V14.01,2013-03-09 21:36:00,
2013-03-09 16:41:00,64.5,26.9,30.13,WNW,289,0.0,12.0,24,0.00,,,0.00,VWS V14.01,2013-03-09 21:41:00,
2013-03-09 16:46:00,64.0,24.4,30.13,West,265,0.0,12.0,22,0.00,,,0.00,VWS V14.01,2013-03-09 21:46:00,
2013-03-09 16:51:00,63.9,25.4,30.13,WNW,300,1.0,12.0,23,0.00,,,0.00,VWS V14.01,2013-03-09 21:51:00,
2013-03-09 16:56:00,63.5,24.0,30.13,WSW,257,0.0,12.0,22,0.00,,,0.00,VWS V14.01,2013-03-09 21:56:00,
2013-03-09 17:01:00,63.4,25.0,30.13,WSW,251,2.0,12.0,23,0.00,,,0.00,VWS V14.01,2013-03-09 22:01:00,
2013-03-09 17:06:00,63.2,24.8,30.13,WSW,243,1.0,12.0,23,0.00,,,0.00,VWS V14.01,2013-03-09 22:06:00,
2013-03-09 17:11:00,63.2,25.8,30.13,WNW,294,2.0,12.0,24,0.00,,,0.00,VWS V14.01,2013-03-09 22:11:00,
2013-03-09 17:16:00,63.2,24.8,30.13,West,279,0.0,12.0,23,0.00,,,0.00,VWS V14.01,2013-03-09 22:16:00,
2013-03-09 17:21:00,63.4,25.0,30.13,WSW,256,3.0,12.0,23,0.00,,,0.00,VWS V14.01,2013-03-09 22:21:00,
2013-03-09 17:26:00,63.2,23.8,30.13,WSW,254,2.0,12.0,22,0.00,,,0.00,VWS V14.01,2013-03-09 22:26:00,
2013-03-09 17:31:00,63.2,26.8,30.13,WSW,254,0.0,12.0,25,0.00,,,0.00,VWS V14.01,2013-03-09 22:31:00,
2013-03-09 17:37:00,63.1,25.8,30.12,WSW,254,0.0,12.0,24,0.00,,,0.00,VWS V14.01,2013-03-09 22:37:00,
2013-03-09 17:42:00,63.1,26.7,30.12,WSW,254,1.0,12.0,25,0.00,,,0.00,VWS V14.01,2013-03-09 22:42:00,
2013-03-09 17:47:00,62.7,27.4,30.12,WSW,254,0.0,12.0,26,0.00,,,0.00,VWS V14.01,2013-03-09 22:47:00,
2013-03-09 17:52:00,62.4,28.9,30.12,WSW,254,0.0,12.0,28,0.00,,,0.00,VWS V14.01,2013-03-09 22:52:00,
2013-03-09 17:57:00,62.0,28.5,30.12,WSW,254,0.0,12.0,28,0.00,,,0.00,VWS V14.01,2013-03-09 22:57:00,
2013-03-09 18:02:00,61.2,27.0,30.12,WSW,254,0.0,12.0,27,0.00,,,0.00,VWS V14.01,2013-03-09 23:02:00,
2013-03-09 18:07:00,60.9,26.7,30.13,WSW,254,0.0,12.0,27,0.00,,,0.00,VWS V14.01,2013-03-09 23:07:00,
2013-03-09 18:12:00,60.1,30.2,30.13,WSW,254,0.0,12.0,32,0.00,,,0.00,VWS V14.01,2013-03-09 23:12:00,
2013-03-09 18:17:00,59.3,34.4,30.13,WSW,254,0.0,12.0,39,0.00,,,0.00,VWS V14.01,2013-03-09 23:17:00,
2013-03-09 18:22:00,58.7,33.8,30.14,WSW,254,0.0,12.0,39,0.00,,,0.00,VWS V14.01,2013-03-09 23:22:00,
2013-03-09 18:27:00,58.0,35.1,30.14,WSW,254,0.0,12.0,42,0.00,,,0.00,VWS V14.01,2013-03-09 23:27:00,
2013-03-09 18:32:00,56.7,32.0,30.14,WSW,254,0.0,12.0,39,0.00,,,0.00,VWS V14.01,2013-03-09 23:32:00,
2013-03-09 18:37:00,55.7,31.8,30.15,WSW,254,0.0,12.0,40,0.00,,,0.00,VWS V14.01,2013-03-09 23:37:00,
2013-03-09 18:42:00,54.4,31.2,30.15,WSW,252,0.0,12.0,41,0.00,,,0.00,VWS V14.01,2013-03-09 23:42:00,
2013-03-09 18:47:00,53.3,32.0,30.15,WSW,252,0.0,12.0,44,0.00,,,0.00,VWS V14.01,2013-03-09 23:47:00,
2013-03-09 18:52:00,52.6,33.0,30.16,WSW,252,0.0,12.0,47,0.00,,,0.00,VWS V14.01,2013-03-09 23:52:00,
2013-03-09 18:57:00,51.6,33.1,30.16,WSW,252,0.0,12.0,49,0.00,,,0.00,VWS V14.01,2013-03-09 23:57:00,
2013-03-09 19:02:00,51.0,32.5,30.16,WSW,252,0.0,12.0,49,0.00,,,0.00,VWS V14.01,2013-03-10 00:02:00,
2013-03-09 19:08:00,50.5,35.0,30.16,WSW,252,1.0,12.0,55,0.00,,,0.00,VWS V14.01,2013-03-10 00:08:00,
2013-03-09 19:13:00,49.6,34.6,30.16,WSW,252,0.0,12.0,56,0.00,,,0.00,VWS V14.01,2013-03-10 00:13:00,
2013-03-09 19:18:00,49.2,32.3,30.16,WSW,252,0.0,12.0,52,0.00,,,0.00,VWS V14.01,2013-03-10 00:18:00,
2013-03-09 19:23:00,49.1,31.3,30.16,WSW,252,0.0,12.0,50,0.00,,,0.00,VWS V14.01,2013-03-10 00:23:00,
2013-03-09 19:28:00,48.6,32.3,30.16,WSW,252,0.0,12.0,53,0.00,,,0.00,VWS V14.01,2013-03-10 00:28:00,
2013-03-09 19:33:00,48.2,32.3,30.16,WSW,252,0.0,12.0,54,0.00,,,0.00,VWS V14.01,2013-03-10 00:33:00,
2013-03-09 19:38:00,47.7,32.3,30.16,WSW,252,0.0,12.0,55,0.00,,,0.00,VWS V14.01,2013-03-10 00:38:00,
2013-03-09 19:43:00,47.6,32.2,30.16,WSW,252,0.0,12.0,55,0.00,,,0.00,VWS V14.01,2013-03-10 00:43:00,
2013-03-09 19:48:00,47.3,32.0,30.16,WSW,252,0.0,12.0,55,0.00,,,0.00,VWS V14.01,2013-03-10 00:48:00,
2013-03-09 19:53:00,46.8,31.5,30.16,WSW,252,0.0,12.0,55,0.00,,,0.00,VWS V14.01,2013-03-10 00:53:00,
2013-03-09 19:58:00,46.5,31.2,30.16,WSW,252,0.0,12.0,55,0.00,,,0.00,VWS V14.01,2013-03-10 00:58:00,
2013-03-09 20:03:00,46.2,31.4,30.16,WSW,252,0.0,12.0,56,0.00,,,0.00,VWS V14.01,2013-03-10 01:03:00,
2013-03-09 20:08:00,46.1,32.6,30.15,WSW,252,0.0,12.0,59,0.00,,,0.00,VWS V14.01,2013-03-10 01:08:00,
2013-03-09 20:13:00,45.8,31.9,30.15,WSW,252,0.0,12.0,58,0.00,,,0.00,VWS V14.01,2013-03-10 01:13:00,
2013-03-09 20:18:00,45.4,31.1,30.15,WSW,252,0.0,12.0,57,0.00,,,0.00,VWS V14.01,2013-03-10 01:18:00,
2013-03-09 20:23:00,45.2,30.0,30.15,WSW,252,0.0,12.0,55,0.00,,,0.00,VWS V14.01,2013-03-10 01:23:00,
2013-03-09 20:28:00,45.1,31.2,30.15,WSW,252,0.0,12.0,58,0.00,,,0.00,VWS V14.01,2013-03-10 01:28:00,
2013-03-09 20:34:00,45.2,30.0,30.15,WSW,252,1.0,12.0,55,0.00,,,0.00,VWS V14.01,2013-03-10 01:34:00,
2013-03-09 20:39:00,44.9,30.6,30.15,WSW,252,0.0,12.0,57,0.00,,,0.00,VWS V14.01,2013-03-10 01:39:00,
2013-03-09 20:44:00,44.8,30.5,30.15,WSW,252,0.0,12.0,57,0.00,,,0.00,VWS V14.01,2013-03-10 01:44:00,
2013-03-09 20:49:00,44.6,29.9,30.16,WSW,252,0.0,12.0,56,0.00,,,0.00,VWS V14.01,2013-03-10 01:49:00,
2013-03-09 20:54:00,44.5,30.7,30.16,WSW,252,0.0,12.0,58,0.00,,,0.00,VWS V14.01,2013-03-10 01:54:00,
2013-03-09 20:59:00,44.2,30.0,30.16,WSW,252,0.0,12.0,57,0.00,,,0.00,VWS V14.01,2013-03-10 01:59:00,
2013-03-09 21:04:00,44.2,30.4,30.17,WSW,252,0.0,12.0,58,0.00,,,0.00,VWS V14.01,2013-03-10 02:04:00,
2013-03-09 21:09:00,44.1,29.9,30.17,WSW,252,0.0,12.0,57,0.00,,,0.00,VWS V14.01,2013-03-10 02:09:00,
2013-03-09 21:14:00,43.8,29.6,30.17,WSW,252,0.0,12.0,57,0.00,,,0.00,VWS V14.01,2013-03-10 02:14:00,
2013-03-09 21:20:00,43.6,29.8,30.15,WSW,252,0.0,12.0,58,0.00,,,0.00,VWS V14.01,2013-03-10 02:20:00,
2013-03-09 21:25:00,43.5,29.7,30.15,WSW,252,0.0,12.0,58,0.00,,,0.00,VWS V14.01,2013-03-10 02:25:00,
2013-03-09 21:30:00,43.5,29.7,30.15,WSW,252,0.0,12.0,58,0.00,,,0.00,VWS V14.01,2013-03-10 02:30:00,
2013-03-09 21:35:00,43.5,30.5,30.15,WSW,252,0.0,12.0,60,0.00,,,0.00,VWS V14.01,2013-03-10 02:35:00,
2013-03-09 21:40:00,43.5,30.1,30.15,WSW,252,0.0,12.0,59,0.00,,,0.00,VWS V14.01,2013-03-10 02:40:00,
2013-03-09 21:45:00,43.5,30.1,30.15,WSW,252,0.0,12.0,59,0.00,,,0.00,VWS V14.01,2013-03-10 02:45:00,
2013-03-09 21:50:00,43.6,29.8,30.16,WSW,252,0.0,12.0,58,0.00,,,0.00,VWS V14.01,2013-03-10 02:50:00,
2013-03-09 21:56:00,43.9,30.9,30.16,NNW,335,0.0,12.0,60,0.00,,,0.00,VWS V14.01,2013-03-10 02:56:00,
2013-03-09 22:01:00,43.9,30.9,30.16,NNW,335,0.0,12.0,60,0.00,,,0.00,VWS V14.01,2013-03-10 03:01:00,
2013-03-09 22:06:00,44.1,29.4,30.16,NNW,335,0.0,12.0,56,0.00,,,0.00,VWS V14.01,2013-03-10 03:06:00,
2013-03-09 22:11:00,44.3,30.9,30.16,NNW,335,0.0,12.0,59,0.00,,,0.00,VWS V14.01,2013-03-10 03:11:00,
2013-03-09 22:16:00,44.8,30.9,30.16,NNW,335,0.0,12.0,58,0.00,,,0.00,VWS V14.01,2013-03-10 03:16:00,
2013-03-09 22:21:00,45.2,31.7,30.16,NNW,335,1.0,12.0,59,0.00,,,0.00,VWS V14.01,2013-03-10 03:21:00,
2013-03-09 22:26:00,45.7,30.9,30.16,NNW,335,0.0,12.0,56,0.00,,,0.00,VWS V14.01,2013-03-10 03:26:00,
2013-03-09 22:31:00,46.0,31.6,30.16,NNW,335,0.0,12.0,57,0.00,,,0.00,VWS V14.01,2013-03-10 03:31:00,
2013-03-09 22:36:00,46.2,32.7,30.15,NNW,335,0.0,12.0,59,0.00,,,0.00,VWS V14.01,2013-03-10 03:36:00,
2013-03-09 22:41:00,46.4,31.6,30.15,NNW,335,0.0,12.0,56,0.00,,,0.00,VWS V14.01,2013-03-10 03:41:00,
2013-03-09 22:46:00,46.7,32.7,30.15,NNW,335,0.0,12.0,58,0.00,,,0.00,VWS V14.01,2013-03-10 03:46:00,
2013-03-09 22:51:00,46.8,31.5,30.15,NNW,335,0.0,12.0,55,0.00,,,0.00,VWS V14.01,2013-03-10 03:51:00,
2013-03-09 22:56:00,47.1,33.1,30.15,NNW,335,0.0,12.0,58,0.00,,,0.00,VWS V14.01,2013-03-10 03:56:00,
2013-03-09 23:02:00,47.1,32.7,30.15,NNW,335,0.0,12.0,57,0.00,,,0.00,VWS V14.01,2013-03-10 04:02:00,
2013-03-09 23:07:00,47.1,33.9,30.15,NNW,335,0.0,12.0,60,0.00,,,0.00,VWS V14.01,2013-03-10 04:07:00,
2013-03-09 23:12:00,47.0,31.7,30.15,NNW,335,0.0,12.0,55,0.00,,,0.00,VWS V14.01,2013-03-10 04:12:00,
2013-03-09 23:17:00,47.0,32.1,30.15,NNW,335,0.0,12.0,56,0.00,,,0.00,VWS V14.01,2013-03-10 04:17:00,
2013-03-09 23:22:00,47.0,30.8,30.13,NNW,335,0.0,12.0,53,0.00,,,0.00,VWS V14.01,2013-03-10 04:22:00,
2013-03-09 23:27:00,47.1,33.1,30.13,NNW,335,0.0,12.0,58,0.00,,,0.00,VWS V14.01,2013-03-10 04:27:00,
2013-03-09 23:32:00,47.1,33.1,30.13,NNW,335,0.0,12.0,58,0.00,,,0.00,VWS V14.01,2013-03-10 04:32:00,
2013-03-09 23:37:00,47.0,32.1,30.13,NNW,335,0.0,12.0,56,0.00,,,0.00,VWS V14.01,2013-03-10 04:37:00,
2013-03-09 23:42:00,46.8,31.0,30.13,NNW,335,0.0,12.0,54,0.00,,,0.00,VWS V14.01,2013-03-10 04:42:00,
2013-03-09 23:47:00,46.7,30.5,30.13,NNW,335,0.0,12.0,53,0.00,,,0.00,VWS V14.01,2013-03-10 04:47:00,
2013-03-09 23:52:00,46.7,31.9,30.12,NNW,335,0.0,12.0,56,0.00,,,0.00,VWS V14.01,2013-03-10 04:52:00,
2013-03-09 23:58:00,46.7,31.9,30.12,NNW,335,0.0,12.0,56,0.00,,,0.00,VWS V14.01,2013-03-10 04:58:00,